Change the Weather History Date:

Sunday, April 20, 2014

  Actual Average Record
Temperature  
Mean Temperature 63 °F 57 °F  
Max Temperature 79 °F 72 °F 91 °F (2008)
Min Temperature 47 °F 41 °F 34 °F (2006)
Degree Days  
Heating Degree Days 2 9  
Month to date heating degree days 229 233  
Since 1 July heating degree days 4400 4281  
Cooling Degree Days 0 0  
Month to date cooling degree days 6 0  
Year to date cooling degree days 7 2  
Growing Degree Days 13 (Base 50)    
Moisture  
Dew Point 47 °F    
Average Humidity 61    
Maximum Humidity 93    
Minimum Humidity 28    
Precipitation  
Precipitation T in 0.07 in 0.23 in (2002)
Month to date precipitation 0.53 0.99  
Year to date precipitation 1.08 3.29  
Snow  
Snow 0.00 in - - ()
Month to date snowfall 2.0  
Since 1 July snowfall 16.2  
Snow Depth 0.00 in    
Sea Level Pressure  
Sea Level Pressure 29.88 in    
Wind  
Wind Speed 13 mph (SSW)    
Max Wind Speed 31 mph    
Max Gust Speed 39 mph    
Visibility 10 miles    
Events Rain , Thunderstorm    
T = Trace of Precipitation, MM = Missing Value Source: NWS Daily Summary

Daily Weather History Graph

Daily Weather History Graph

Search for Another Location

Airport or City:

Trip Planner

Search our weather history database for the weather conditions in past years. The results will help you decide how hot, cold, wet, or windy it might be!

Date:

Astronomy

Apr. 20, 2014 Rise Set
Actual Time 7:05 AM CDT 8:24 PM CDT
Civil Twilight 6:38 AM CDT 8:51 PM CDT
Nautical Twilight 6:06 AM CDT 9:24 PM CDT
Astronomical Twilight 5:32 AM CDT 9:58 PM CDT
Moon 1:03 AM CDT (4/20) 11:31 AM CDT (4/20)
Length of Visible Light 14h 13m
Length of Day
13h 19m
Waning Gibbous, 68% of the Moon is Illuminated
Apr 20
Waning Gibbous
Apr 22
Last Quarter
Apr 29
New
May 6
First Quarter
May 14
Full

Hourly Weather History & Observations

Time (CDT) Temp. Dew Point Humidity Pressure Visibility Wind Dir Wind Speed Gust Speed Precip Events Conditions
12:53 AM 61.0 °F 48.9 °F 64% 29.94 in 10.0 mi SSW 11.5 mph - 0.00 in   Overcast
1:53 AM 59.0 °F 48.9 °F 69% 29.91 in 10.0 mi SSW 8.1 mph - 0.00 in   Overcast
2:53 AM 53.1 °F 46.9 °F 80% 29.91 in 10.0 mi South 5.8 mph - N/A   Clear
3:53 AM 53.1 °F 46.9 °F 80% 29.90 in 10.0 mi South 6.9 mph - N/A   Clear
4:53 AM 52.0 °F 46.9 °F 83% 29.91 in 10.0 mi South 8.1 mph - N/A   Clear
5:53 AM 48.9 °F 46.0 °F 90% 29.91 in 10.0 mi SSW 8.1 mph - N/A   Clear
6:53 AM 48.0 °F 45.0 °F 89% 29.92 in 10.0 mi South 8.1 mph - N/A   Clear
7:53 AM 48.9 °F 46.0 °F 90% 29.93 in 10.0 mi South 6.9 mph - N/A   Clear
8:53 AM 57.0 °F 48.9 °F 74% 29.92 in 10.0 mi SSW 13.8 mph - N/A   Clear
9:53 AM 63.0 °F 50.0 °F 63% 29.92 in 10.0 mi South 17.3 mph - N/A   Clear
10:53 AM 66.9 °F 50.0 °F 54% 29.91 in 10.0 mi SSW 17.3 mph 25.3 mph N/A   Clear
11:53 AM 73.0 °F 48.0 °F 41% 29.89 in 10.0 mi SSW 13.8 mph 25.3 mph N/A   Clear
12:53 PM 75.0 °F 45.0 °F 34% 29.86 in 10.0 mi SSW 19.6 mph 28.8 mph N/A   Clear
1:53 PM 78.1 °F 43.0 °F 29% 29.82 in 10.0 mi South 16.1 mph 24.2 mph N/A   Partly Cloudy
2:53 PM 77.0 °F 43.0 °F 30% 29.82 in 10.0 mi SSE 15.0 mph 24.2 mph N/A   Scattered Clouds
3:53 PM 72.0 °F 46.0 °F 40% 29.81 in 10.0 mi SSW 26.5 mph 36.8 mph 0.00 in Rain , Thunderstorm Light Rain
4:02 PM 71.1 °F 46.0 °F 41% 29.90 in 10.0 mi SSW 19.6 mph - 0.00 in Rain Light Rain
4:14 PM 72.0 °F 45.0 °F 38% 29.90 in 10.0 mi SSW 19.6 mph - 0.00 in Thunderstorm Partly Cloudy
4:29 PM 72.0 °F 45.0 °F 38% 29.91 in 10.0 mi SSW 17.3 mph - 0.00 in   Scattered Clouds
4:36 PM 72.0 °F 45.0 °F 38% 29.91 in 10.0 mi South 12.7 mph - 0.00 in Thunderstorm Mostly Cloudy
4:51 PM 71.6 °F 46.4 °F 41% 29.91 in 10.0 mi South 11.5 mph - 0.00 in   Mostly Cloudy
4:53 PM 69.1 °F 48.0 °F 47% 29.82 in 10.0 mi South 11.5 mph - 0.00 in   Mostly Cloudy
5:53 PM 73.9 °F 45.0 °F 35% 29.80 in 10.0 mi West 16.1 mph 26.5 mph N/A   Partly Cloudy
6:53 PM 72.0 °F 45.0 °F 38% 29.83 in 10.0 mi West 8.1 mph - N/A   Clear
7:53 PM 66.9 °F 48.0 °F 51% 29.85 in 10.0 mi NW 6.9 mph - N/A   Clear
8:53 PM 63.0 °F 48.9 °F 60% 29.86 in 10.0 mi SSE 12.7 mph 18.4 mph N/A   Clear
9:53 PM 59.0 °F 51.1 °F 75% 29.87 in 10.0 mi South 9.2 mph - N/A   Clear
10:53 PM 55.9 °F 51.1 °F 84% 29.89 in 10.0 mi South 8.1 mph - N/A   Clear
11:53 PM 55.0 °F 52.0 °F 89% 29.89 in 10.0 mi South 6.9 mph - N/A   Clear